Location: Lafig�re
(44.4503°N, 4.0357°E)
Time: 15:02:36
(UTC+00:00)

deb Explorer IX - Pass Details

Date: 28 January 2021
Orbit: 537 x 1102 km, 38.8° (Epoch: 01 March)

Event Time Altitude Azimuth Distance (km) Brightness Sun altitude
Rises 16:30:03 0° 244° (WSW) 3,861 ? 2.0°
Reaches altitude 10° 16:33:00 10° 239° (WSW) 2,861 ? 1.5°
Maximum altitude 16:39:35 46° 169° (S) 1,280 ? 0.5°
Drops below altitude 10° 16:45:25 10° 98° (E) 2,532 ? -0.5°
Sets 16:47:53 0° 92° (E) 3,381 ? -0.9°
